Hourly Data Report for October 14, 2015

All times are specified in Local Standard Time (LST). Add 1 hour to adjust for Daylight Saving Time where and when it is observed.

CORAL HARBOUR A
NUNAVUT

64°11'36.000" N
83°21'34.000" W
62.20 m
2301002
71915
YZS

Download Data

Hourly Data (October 2015)
Hourly Data Report for October 14, 2015
Temp Definition
°C
Dew Point Temp Definition
°C
Rel Hum Definition
%
Wind Dir Definition
10's deg

Wind Spd Definition
km/h
Visibility Definition
km
Stn Press Definition
kPa
Hmdx Definition


Wind Chill Definition


Weather Definition


TIME
00:00 Legend Double Dagger -8.4 -10.2 87 24 18 24.1 99.46   -15 LegendNANA
01:00 Legend Double Dagger -7.8 -9.3 89 24 17 24.1 99.45   -14 Mainly Clear
02:00 Legend Double Dagger -7.4 -9.1 88 26 17 24.1 99.43   -14 LegendNANA
03:00 Legend Double Dagger -7.8 -9.2 90 22 16 24.1 99.41   -14 LegendNANA
04:00 Legend Double Dagger -7.5 -9.3 87 25 21 24.1 99.39   -15 Mainly Clear
05:00 Legend Double Dagger -7.7 -9.4 88 27 18 16.1 99.39   -15 Snow
06:00 Legend Double Dagger -9.4 -10.6 91 29 12 19.3 99.43   -15 Snow
07:00 Legend Double Dagger -12.2 -14.2 85 36 17 24.1 99.47   -20 Mainly Clear
08:00 Legend Double Dagger -13.5 -15.7 84 35 19 24.1 99.50   -22 LegendNANA
09:00 Legend Double Dagger -13.5 -15.7 84 35 20 24.1 99.53   -22 LegendNANA
10:00 Legend Double Dagger -12.3 -14.8 82 35 15 24.1 99.54   -20 Clear
11:00 Legend Double Dagger -8.8 -11.5 81 29 10 24.1 99.54   -14 LegendNANA
12:00 Legend Double Dagger -6.3 -9.7 77 31 24 24.1 99.54   -14 LegendNANA
13:00 Legend Double Dagger -6.1 -9.3 78 30 22 24.1 99.53   -13 Mainly Clear
14:00 Legend Double Dagger -5.6 -8.9 78 31 35 24.1 99.53   -14 LegendNANA
15:00 Legend Double Dagger -6.6 -9.3 81 32 26 24.1 99.57   -15 LegendNANA
16:00 Legend Double Dagger -7.1 -9.2 85 31 30 24.1 99.61   -16 Blowing Snow
17:00 Legend Double Dagger -7.8 -10.2 83 32 22 24.1 99.65   -15 Blowing Snow
18:00 Legend Double Dagger -8.8 -11.0 84 30 22 24.1 99.67   -17 Blowing Snow
19:00 Legend Double Dagger -8.2 -10.8 82 30 27 24.1 99.69   -17 Blowing Snow
20:00 Legend Double Dagger -8.2 -10.3 85 30 23 24.1 99.67   -16 LegendNANA
21:00 Legend Double Dagger -7.8 -10.1 84 31 25 24.1 99.69   -16 LegendNANA
22:00 Legend Double Dagger -7.0 -9.0 86 31 22 24.1 99.71   -14 Mainly Clear
23:00 Legend Double Dagger -8.8 -11.0 84 30 17 24.1 99.74   -16 LegendNANA

Notes on Data Quality.

Legend

  • E = Estimated
  • M = Missing
  • NA = Not Available
  • ‡ = Partner data that is not subject to review by the National Climate Archives
Date modified: